Voltar ao catálogo

COSMOS 1738

AtivoMilitarGEO
NORAD 16667·PAYLOAD·🇷🇺 Russia

Lançado Apr 4, 1986 de Baikonur Cosmodrome

Loading…

TLE

AtualizadoSource: Space-Track

Época: Sep 14, 2026, 22:19 UTC

1 16667U 86027A   26257.93006078 -.00000081  00000-0  00000-0 0  9994
2 16667  10.1095 317.1699 0011771 160.5188 203.6676  1.00274400148254

Acompanhe COSMOS 1738 em tempo real com AllMySat

Download on the App Store